Weather in Balozi

Latvia     56˚52′34″N   24˚07′03″E
temp.,
°C
wind,
m/s
gust,
m/s
humid.,
%
clouds,
%
prec.,
mm/h
press.,
hPa
HPBL,
m
16 january, sat
sat1623:00−9˚nne5878100 0.1 1017778
02:00−8˚ne3691100 0.3 1016437
05:00−10˚ese2394100 0.9 1014281
08:00−9˚ene3689100 1.8 1014485
11:00−11˚ene5782100 0.1 1016687
14:00−12˚e468384 0.1 1017454
17:00−13˚ene348598 0.0 1018310
20:00−14˚e239099 0.0 1019183
17 january, sun
sun1723:00−14˚e239070 0.0 1020173
02:00−14˚e129066 0.0 1020154
05:00−14˚e129193 0.0 1020155
08:00−15˚se119460 0.0 102072
11:00−13˚ssw228918 0.0 1021101
14:00−10˚sw228848 0.0 1021232
17:00−11˚sw239481 0.0 1021137
20:00−11˚sw349690 0.1 1021119
18 january, mon
mon1823:00−11˚sw349298 0.0 1020119
02:00−11˚sw349383 0.0 1020119
05:00−11˚ssw359685 0.0 1019131
08:00−10˚ssw349793 0.0 1019145
11:00−8˚ssw3695100 0.0 1019210
14:00−6˚ssw3592100 0.1 1018310
17:00−6˚s369698 0.1 1017185
20:00−5˚sw599499 0.3 1017398
19 january, tue
tue1923:00−6˚ssw4792100 0.1 1016251
02:00−9˚ssw589095 0.1 1016237
05:00−12˚s588743 0.0 1015234
08:00−12˚s598834 0.0 1015257
11:00−11˚sse610840 0.0 1014283
14:00−10˚sse610840 0.0 1013320
17:00−9˚sse6109390 0.1 1012336
20:00−9˚sse6109495 0.2 1011299
20 january, wed
wed2023:00−8˚sse61095100 0.0 1010267
02:00−8˚sse6996100 0.1 1009260
05:00−6˚sse61093100 0.0 1007317
08:00−4˚sse71293100 0.1 1005524
11:00−3˚sse81593100 0.3 1003700
14:00−1˚sse81495100 1.8 1001472
17:00+1˚s71295100 0.8 999441
20:00+3˚s61297100 1.4 998366